NOAA 16 DEB, 41422

Orbit data source: Space-Track

NOAA 16 DEB, 41422 is space debris in SSO originally from a launch on Thu, 21 Sep 2000 UTC launched from the Air Force Western Test Range (AFWTR). Debris objects in space refer to the collection of defunct objects orbiting the Earth. Examples of debris include non-operational satellites, rocket bodies, and fragments generated from explosions, collisions, or faulty payload assembly.

Loading next visibility...
Identifier
41422, 2000-055LB
Orbit
SSO
Last TLE update
16 hours ago
Origin
Manufacturer
Unknown
Mission
Spacecraft
Bus & Motor
Unknown
Mass
Unknown
Launch date (UTC)
2000-09-21 (25 years ago)
Launch vehicle
Unknown
Launch site
Air Force Western Test Range (AFWTR)
Object type
Payload
Rocket body
Debris
Shape & HBR
Unknown
Radar Cross Section
Small (<0.1 m²)

Expand to show TLE details & history

TLE from 16 hours ago
0 NOAA 16 DEB
1 41422U 00055LB  25191.44441336  .00002094  00000-0  91730-3 0  9998
2 41422  98.7291 265.8415 0017028  99.6409 260.6695 14.24703366485509
Epoch: 2025-07-10T10:39Z
TLE epoch observation values (Epoch: 2025-07-10T10:39:57.314Z)
Latitude
0.00003°
Longitude
177.24208°
Altitude
814.415 km
Speed
7.445 km/s
True Right ascension
17h 43m 21s
True Declination
0° 00' 00"
Sunlit
Object was in full shadow at epoch
Visualization orbit readout
Latitude
-41.90127°
Longitude
-9.96348°
Altitude
832.455 km
Speed
7.432 km/s
Apparent Right ascension
04h 14m 46s
Apparent Declination
-41° 52' 00"
Sunlit
Object is in daylight
Visualization observer readout
Local Sidereal Time
15:09:03
Azimuth
255.735° W
Elevation
-77.448°
Doppler factor
1
Orbital elements
Apogee altitude
818.878 km
Perigee altitude
794.409 km
Semi-major axis
7,184.78 km
Eccentricity
0.0017
Inclination
98.7291°
RAAN
265.8415°
Arg. of periapsis
99.6409°
True anomaly
Unknown
Mean anomaly
260.6695°
Eccentric anomaly
Unknown
Mean motion
3.56388 °/min
Orbital period
101.01 mins
BSTAR
0.0009173
Loading maneuver chart data...
Loading SW <> Apogee altitude chart data...
Loading historical data...
Loading historical data...
Loading historical data...
Loading historical data...
Loading historical data...
Loading historical data...
Loading historical data...

NOAA 16 DEB Visibility forecast

Observer location: undefined°, undefined°

Span
Click to sort rows by Start time (UTC) header in descending order
Start Az.
Max El. time (UTC)
Max El. Az.
Max El.
End time (UTC)
End Az.
6 mins2025-07-11 03:41:25.899Z97.474° ESE2025-07-11 03:44:25.899Z57.011° ENE17.928°2025-07-11 03:47:25.899Z21.04° NNE
9 mins2025-07-11 05:19:25.899Z185.462° SSW2025-07-11 05:23:25.899Z258.515° W39.169°2025-07-11 05:28:25.899Z336.702° NNW
8 mins2025-07-11 17:36:25.899Z28.27° NE2025-07-11 17:39:25.899Z91.443° ESE40.743°2025-07-11 17:44:25.899Z180.538° SSW
4 mins2025-07-11 19:17:25.899Z318.75° NNW2025-07-11 19:19:25.899Z291.054° WNW16.558°2025-07-11 19:21:25.899Z265.934° W
|